Regional Weather Roundup
Issued by NWS

Home | Current Version | Previous Version | Graphics & Text | Print | Product List | Glossary On
Versions: 1 2 3 4 5 6 7 8 9 10 11 12 13 14 15 16 17 18 19 20 21 22 23 24 25 26 27 28 29 30 31 32 33 34 35 36 37 38 39 40 41 42 43 44 45 46 47 48 49 50
000
ASUS43 KFSD 020102
RWRSD

WEATHER ROUNDUP FOR SOUTH DAKOTA
NATIONAL WEATHER SERVICE SIOUX FALLS SD
800 PM CDT FRI AUG 01 2014

NOTE: "FAIR" INDICATES FEW OR NO CLOUDS BELOW 12,000 FEET WITH NO
SIGNIFICANT WEATHER AND/OR OBSTRUCTIONS TO VISIBILITY.


SDZ001>005-009-010-012>017-020200-
NORTHWEST AND NORTH CENTRAL SOUTH DAKOTA

CITY           SKY/WX    TMP DP  RH WIND       PRES   REMARKS
BUFFALO          N/A     84  52  33 NE13      29.99R
FAITH            N/A     83  49  30 SW7       30.01S
MOBRIDGE       SUNNY     83  60  45 SE13      29.97F
$$

SDZ012>016-024>037-041>051-057-063-072>074-020200-
SOUTHWEST AND SOUTH CENTRAL SOUTH DAKOTA

CITY           SKY/WX    TMP DP  RH WIND       PRES   REMARKS
RAPID CTY ARPT PTSUNNY   79  49  34 SW7       30.05F
PIERRE         SUNNY     84  56  38 SE17G23   29.98R
CUSTER         PTSUNNY   69  46  43 S3        30.24S
ELLSWORTH AFB  PTSUNNY   81  50  33 W8        30.05F
PHILIP         PTSUNNY   89  51  27 NE5       29.98S
PINE RIDGE     PTSUNNY   76  55  48 W5        30.10S
WINNER         FAIR      85  56  37 SE15      30.01S
$$

SDZ004>011-016>023-039-040-020200-
NORTHEAST SOUTH DAKOTA

CITY           SKY/WX    TMP DP  RH WIND       PRES   REMARKS
ABERDEEN       CLEAR     77  61  57 E6        30.04F
WATERTOWN      CLOUDY    78  58  49 S5        30.08S
SISSETON         N/A     78  66  66 E5        30.05S
$$

SDZ017-020-022-023-036>040-048>070-020200-
SOUTHEAST SOUTH DAKOTA

CITY           SKY/WX    TMP DP  RH WIND       PRES   REMARKS
SIOUX FALLS    PTCLDY    76  57  51 SE9       30.08S
HURON          CLEAR     80  57  45 SE6       30.04S
CHAMBERLAIN    CLEAR     80  56  43 E9        30.02S
MITCHELL       CLEAR     78  61  55 SE7       30.06S
YANKTON        CLEAR     77  61  57 E3        30.07S
$$

ABBREVIATIONS USED IN REMARKS
   TC - TEMPERATURE IN CELSIUS
  WCI - WIND CHILL INDEX
   HX - HEAT INDEX
  VSB - VISIBILITY




USA.gov is the U.S. government's official web portal to all federal, state and local government web resources and services.